Zurück zum Katalog

CZ-6A DEB

AktivPO
NORAD 60796·DEBRIS·🇨🇳 China

Gestartet Aug 6, 2024 von Taiyuan Satellite Launch Center

Loading…

Nächste Überflüge (nächste 24 Stunden)

TLE

AktuellSource: Space-Track

Epoche: Sep 14, 2026, 11:32 UTC

1 60796U 24140FX  26257.48099801  .00000184  00000-0  10080-3 0  9995
2 60796  88.9542 263.0917 0112606 322.6246  36.7140 14.04748993107171

Verfolge CZ-6A DEB in Echtzeit mit AllMySat

Download on the App Store